FW1328 Weather Reports


time (UTC)temp
F
wind
direction
speed
knots
gust
knots
rain 1hr
in
rain 24hr
in
rain mn
in
humidity
%
barometer
mb
20260505083039 65 232 3.5 7.8 0.00 0.00 0.00 75 1001.6
20260505081531 65 196 2.6 7.8 0.00 0.00 0.00 75 1001.5
20260505080030 65 162 3.5 9.6 0.00 0.00 0.00 75 1001.6
20260505074533 65 198 4.3 8.7 0.00 0.00 0.00 75 1001.8
20260505073026 65 191 2.6 7.0 0.00 0.00 0.00 75 1002.0
20260505071526 65 194 3.5 9.6 0.00 0.00 0.00 74 1002.3
20260505070021 66 185 3.5 9.6 0.00 0.00 0.00 73 1002.5
20260505064531 66 234 3.5 8.7 0.00 0.00 0.00 73 1002.8
20260505063017 66 207 1.7 7.0 0.00 0.00 0.00 72 1002.3
20260505061514 66 196 0.9 5.2 0.00 0.00 0.00 71 1002.0
20260505060017 67 238 2.6 8.7 0.00 0.00 0.00 70 1002.2
20260505054518 67 210 2.6 7.8 0.00 0.00 0.00 70 1002.2
20260505053007 68 187 4.3 11.3 0.00 0.00 0.00 69 1002.0
20260505051508 68 218 5.2 16.5 0.00 0.00 0.00 68 1001.6
20260505041609 69 216 4.3 14.8 0.00 0.00 0.00 67 1002.4
20260505040105 69 198 3.5 12.2 0.00 0.00 0.00 67 1002.6
20260505034612 69 227 3.5 7.0 0.00 0.00 0.00 67 1002.7
20260505033059 70 240 1.7 7.0 0.00 0.00 0.00 66 1002.7
20260505031602 70 203 2.6 7.0 0.00 0.00 0.00 65 1002.6
20260505030114 71 229 2.6 5.2 0.00 0.00 0.00 64 1002.2
20260505024611 71 211 3.5 8.7 0.00 0.00 0.00 63 1001.8
20260505023101 72 194 1.7 6.1 0.00 0.00 0.00 62 1001.4
20260505021556 72 199 1.7 6.1 0.00 0.00 0.00 61 1001.1
20260505021531 72 208 2.6 6.1 0.00 0.00 0.00 61 1001.1
20260505020106 73 209 3.5 8.7 0.00 0.00 0.00 60 1000.8
20260505014554 74 207 2.6 6.1 0.00 0.00 0.00 60 1000.7
20260505013053 74 189 3.5 7.0 0.00 0.00 0.00 59 1000.7
20260505011556 75 202 1.7 7.8 0.00 0.00 0.00 59 1000.7
20260505010108 75 196 4.3 10.4 0.00 0.00 0.00 57 1000.5
20260505004603 76 221 3.5 7.0 0.00 0.00 0.00 56 1000.4
20260505003151 77 197 3.5 9.6 0.00 0.00 0.00 55 1000.4
20260505001550 78 266 3.5 7.8 0.00 0.00 0.00 54 1000.3
20260504234548 79 238 6.1 15.6 0.00 0.00 0.00 51 1000.2
20260504233049 80 207 9.6 18.2 0.00 0.00 0.00 48 1000.3
20260504231618 80 202 7.0 14.8 0.00 0.00 0.00 50 1000.4
20260504230047 81 209 8.7 16.5 0.00 0.00 0.00 49 1000.5
20260504224545 81 226 8.7 20.0 0.00 0.00 0.00 48 1000.3
20260504223047 81 236 7.8 15.6 0.00 0.00 0.00 49 1000.3
20260504221616 81 222 9.6 15.6 0.00 0.00 0.00 47 1000.4
20260504220043 81 232 8.7 17.4 0.00 0.00 0.00 48 1000.4
20260504214542 81 226 13.0 22.6 0.00 0.00 0.00 48 1000.5
20260504213104 81 286 6.1 17.4 0.00 0.00 0.00 49 1000.5
20260504211539 81 232 11.3 21.7 0.00 0.00 0.00 49 1000.4
20260504210045 80 203 9.6 18.2 0.00 0.00 0.00 51 1000.4
20260504204537 80 201 6.1 18.2 0.00 0.00 0.00 51 1000.5
20260504203035 80 242 13.0 22.6 0.00 0.00 0.00 49 1000.6
20260504201534 80 215 7.0 18.2 0.00 0.00 0.00 51 1000.6
20260504200030 79 199 10.4 17.4 0.00 0.00 0.00 51 1001.1
20260504194527 79 202 10.4 16.5 0.00 0.00 0.00 52 1001.7
20260504193025 79 239 7.8 13.0 0.00 0.00 0.00 52 1002.0
20260504191529 77 240 7.0 13.9 0.00 0.00 0.00 53 1002.4
20260504190024 77 205 7.0 14.8 0.00 0.00 0.00 52 1002.6
20260504184538 78 234 10.4 18.2 0.00 0.00 0.00 51 1002.5
20260504183021 78 266 13.9 20.0 0.00 0.00 0.00 50 1002.5
20260504181520 79 242 6.1 15.6 0.00 0.00 0.00 50 1002.4
20260504180020 79 239 11.3 19.1 0.00 0.00 0.00 49 1002.4
20260504174515 78 244 7.8 20.9 0.00 0.00 0.00 50 1002.7
20260504173016 78 253 10.4 20.0 0.00 0.00 0.00 50 1002.7
20260504171512 78 267 9.6 20.0 0.00 0.00 0.00 50 1002.8